Content
SEND FEEDBACK

Daily
Averages
Monthly
Summary
Spain

GRANADA, SPAIN


Home > Europe > Spain
Elevation: 2261 feet     Latitude: 37 09N     Longitude: 003 35W

WEATHER
 
SELECT A DAY
Number of Records: 203,154;   Date Range: 7/1/96 - 11/20/14
 
SHARE

PRINT THIS DATA

[ ← Previous Day ]
WEATHER ALMANAC - JANUARY 31, 2013
[ Next Day → ]
[ °C ]   °F
Weather ElementAverageHighLow
Temperature49.5 °F68 °F (3:30 pm)31 °F (7:00 am)
Dewpoint36.1 °F44.6 °F (7:00 pm)29 °F (7:00 am)
Humidity65.5 %100 % (6:00 am)24 % (3:30 pm)
Barometer30.46 in30.59 in (7:00 am)30.39 in (4:30 pm)
Wind Speed0.6 mph4.6 mph (7:30 pm)
Weather ElementAverage
Visibility13.7 mi
Wind DirectionNNE (10.3 °)

Weather ElementTotal
Precipitation---
Heating Degree Days15.5 (Base 65)
Averaged from 37 records on January 31, 2013
WEATHER CONDITIONS BREAKOUT
WIND DIRECTION BREAKOUT
WEATHER BY HOUR - JANUARY 31, 2013
[ °C ]   °F
Local TimeTemperatureDewpointHumidityBarometerVisibilityWind DirectionWind SpeedGust SpeedPrecipitationEventsConditions
6:00 AM32.0 °F32.0 °F100 %30.48 inCalmClear
6:30 AM32.0 °F30.2 °F93 %30.48 inVariable2.3 mphClear
7:00 AM31.0 °F29.0 °F89 %30.59 in6.0 miCalm
7:00 AM32.0 °F32.0 °F100 %30.48 inCalmClear
7:30 AM32.0 °F30.2 °F93 %30.48 inCalmClear
8:00 AM32.0 °F30.2 °F93 %30.48 inCalmClear
8:30 AM32.0 °F30.2 °F93 %30.51 inCalmClear
9:00 AM32.0 °F30.2 °F93 %30.51 inCalmClear
9:30 AM35.6 °F33.8 °F93 %30.51 inCalmClear
10:00 AM37.4 °F33.8 °F87 %30.51 inCalmClear
10:30 AM44.6 °F37.4 °F76 %30.51 inCalmClear
11:00 AM46.4 °F37.4 °F71 %30.51 inCalmClear
11:30 AM48.2 °F37.4 °F66 %30.51 inCalmClear
12:00 PM50.0 °F37.4 °F62 %30.51 inCalmClear
12:30 PM53.6 °F39.2 °F58 %30.51 inCalmClear
1:00 PM56.0 °F38.0 °F38 %30.48 in19.0 miCalmClear
1:30 PM59.0 °F39.2 °F48 %30.48 inCalmClear
2:00 PM60.8 °F37.4 °F42 %30.45 inCalmClear
2:30 PM62.6 °F32.0 °F32 %30.45 inCalmClear
3:00 PM66.2 °F35.6 °F32 %30.42 inCalmClear
3:30 PM68.0 °F30.2 °F24 %30.42 inCalmClear
4:00 PM68.0 °F32.0 °F26 %30.42 inCalmClear
4:30 PM68.0 °F33.8 °F28 %30.39 inVariable1.2 mphClear
5:00 PM68.0 °F33.8 °F28 %30.39 inVariable1.2 mphClear
5:30 PM68.0 °F35.6 °F30 %30.39 inVariable1.2 mphClear
6:00 PM68.0 °F35.6 °F30 %30.39 inCalmClear
6:30 PM64.4 °F41.0 °F42 %30.42 inVariable1.2 mphClear
7:00 PM53.6 °F44.6 °F72 %30.42 inVariable2.3 mphClear
7:00 PM56.0 °F42.0 °F50 %30.42 in16.0 miSSE (160°)2.3 mph
7:30 PM50.0 °F42.8 °F76 %30.42 inSSW (200°)4.6 mphClear
8:00 PM50.0 °F42.8 °F76 %30.42 inVariable4.6 mphClear
8:30 PM50.0 °F41.0 °F71 %30.45 inCalmClear
9:00 PM48.2 °F41.0 °F76 %30.45 inVariable1.2 mphClear
9:30 PM46.4 °F41.0 °F81 %30.45 inCalmClear
10:00 PM44.6 °F39.2 °F81 %30.45 inCalmClear
10:30 PM42.8 °F39.2 °F87 %30.45 inVariable1.2 mphClear
11:00 PM42.8 °F39.2 °F87 %30.45 inCalmClear
Hourly data recorded from LEGA, located miles away from Granada, Spain







STORIES FROM OUR PARTNERS